Mazar-I-Sharif, Afghanistan

2:18 AM +0430 on March 31, 2017 (GMT +0430)
Mazar-I-Sharif

Weather History for OAMS - July, 2013

Change the Weather History Date:

Friday, July 26, 2013

  Actual Average Record
Temperature  
Mean Temperature 94 °F -  
Max Temperature 105 °F 99 °F - ()
Min Temperature 84 °F 76 °F - ()
Cooling Degree Days 30    
Growing Degree Days 44 (Base 50)    
Moisture  
Dew Point 33 °F    
Average Humidity 11    
Maximum Humidity 15    
Minimum Humidity 6    
Precipitation  
Precipitation 0.00 in 0.00 in - ()
Sea Level Pressure  
Sea Level Pressure 29.49 in    
Wind  
Wind Speed 6 mph ()    
Max Wind Speed 9 mph    
Max Gust Speed -    
Visibility 6.1 miles    
Events      
T = Trace of Precipitation, MM = Missing Value Source: Averaged Metar Reports

Daily Weather History Graph

Daily Weather History Graph

Search for Another Location

Airport or City:

Trip Planner

Search our weather history database for the weather conditions in past years. The results will help you decide how hot, cold, wet, or windy it might be!

Date:

Astronomy

Jul. 26, 2013 Rise Set
Actual Time 5:02 AM +0430 7:12 PM +0430
Civil Twilight 4:33 AM +0430 7:41 PM +0430
Nautical Twilight 3:57 AM +0430 8:17 PM +0430
Astronomical Twilight 3:18 AM +0430 8:55 PM +0430
Moon 9:21 PM +0430 (7/26) 9:01 AM +0430 (7/26)
Length of Visible Light 15h 08m
Length of Day
14h 10m
Waning Gibbous, 83% of the Moon is Illuminated
Jul 26
Waning Gibbous
Jul 29
Last Quarter
Aug 7
New
Aug 14
First Quarter
Aug 21
Full

Hourly Weather History & Observations

Time (+0430) Temp. Dew Point Humidity Pressure Visibility Wind Dir Wind Speed Gust Speed Precip Events Conditions
12:20 AM 93.2 °F 28.4 °F 10% 29.50 in 6.2 mi SW 8.1 mph - N/A   Clear
1:20 AM 93.2 °F 28.4 °F 10% 29.50 in 6.2 mi WSW 9.2 mph - N/A   Clear
2:20 AM 93.2 °F 30.2 °F 11% 29.50 in 6.2 mi SSW 6.9 mph - N/A   Clear
3:20 AM 93.2 °F 32.0 °F 11% 29.50 in 6.2 mi SSW 6.9 mph - N/A   Clear
4:20 AM 93.2 °F 32.0 °F 11% 29.50 in 6.2 mi SSW 6.9 mph - N/A   Clear
5:20 AM 93.2 °F 32.0 °F 11% 29.50 in 6.2 mi SSW 8.1 mph - N/A   Clear
6:20 AM 84.2 °F 32.0 °F 15% 29.53 in 6.2 mi NNE 8.1 mph - N/A   Clear
7:20 AM 87.8 °F 32.0 °F 14% 29.56 in 6.2 mi NE 6.9 mph - N/A   Clear
8:20 AM 91.4 °F 35.6 °F 14% 29.56 in 6.2 mi NE 9.2 mph - N/A   Clear
9:20 AM 93.2 °F 32.0 °F 11% 29.56 in 6.2 mi NNE 9.2 mph - N/A   Clear
10:20 AM 96.8 °F 30.2 °F 10% 29.56 in 6.2 mi NNE 3.5 mph - N/A   Clear
12:20 PM 102.2 °F 33.8 °F 9% 29.53 in 6.2 mi NNW 4.6 mph - N/A   Clear
1:20 PM 104.0 °F 35.6 °F 9% 29.50 in 6.2 mi NNE 3.5 mph - N/A   Clear
2:20 PM 105.8 °F 33.8 °F 8% 29.47 in 6.2 mi ENE 5.8 mph - N/A   Clear
3:20 PM 105.8 °F 32.0 °F 8% 29.47 in 6.2 mi NNE 4.6 mph - N/A   Clear
4:20 PM 105.8 °F 32.0 °F 8% 29.44 in 6.2 mi North 5.8 mph - N/A   Clear
5:20 PM 105.8 °F 26.6 °F 6% 29.44 in 6.2 mi North 5.8 mph - N/A   Clear
6:20 PM 104.0 °F 33.8 °F 9% 29.44 in 6.2 mi NE 3.5 mph - N/A   Clear
7:20 PM 98.6 °F 37.4 °F 12% 29.44 in 6.2 mi WNW 3.5 mph - N/A   Clear
8:20 PM 98.6 °F 35.6 °F 11% 29.47 in 5.0 mi SSW 5.8 mph - N/A   Clear
9:20 PM 95.0 °F 35.6 °F 12% 29.47 in 6.2 mi South 2.3 mph - N/A   Clear
10:20 PM 93.2 °F 33.8 °F 12% 29.47 in 6.2 mi South 2.3 mph - N/A   Clear
11:20 PM 91.4 °F 33.8 °F 13% 29.47 in 6.2 mi South 2.3 mph - N/A   Clear